Find Starlink 32771

NORAD ID: 62573 Int'l Des: 2025-006 Owner: SPXS Country: US Constellation: starlink operational
LEOCIRCULAR

現在のビュー

3D地球を読み込み中...

About Starlink 32771

Starlink 32771 (NORAD 62573) is a starlink constellation satellite (v2 mini) launched Jan 10, 2025 by SPXS of US. It operates in LEO, CIRCULAR orbit with a mass of 730.00 kg.

次回通過

Passes for default location (London). Set your location on the main map for personalized predictions.

高度履歴

Loading altitude history...

軌道要素

1 62573U 25006V 26265.68628948 .00013726 00000-0 50734-3 0 9999
2 62573 42.9966 259.7856 0000706 287.5002 72.5773 15.27581673 94997
Epoch: Sep 22, 2026 • Age: 13 hours

現在のステータス

高度 482.0 km
遠地点 / 近地点 N/A
速度 7.63 km/s
衛星直下点 11.96°N, 168.73°W
打ち上げ日 Jan 10, 2025
運用期間 1.6 years
タイプ internet

技術仕様

分類 Payload
質量 730.00 kg
乾燥質量 700.00 kg
長さ 0.30 m
スパン 29.00 m
形状 ? Box + pan
製造者 SPXS
バスタイプ Starlink V2M
フェーズステータス In Orbit
所有者/国 SPXS/US

Most Searched